TimeCST,TemperatureF,Dew PointF,Humidity,Sea Level PressureIn,VisibilityMPH,Wind Direction,Wind SpeedMPH,Gust SpeedMPH,PrecipitationIn,Events,Conditions,WindDirDegrees,DateUTC
12:02 AM,32.0,30.2,93,29.66,5.0,NE,10.4,23.0,0.00,Rain,Light Freezing Rain,50,2013-12-22 06:02:00
12:21 AM,32.0,30.2,93,29.66,3.0,NE,12.7,20.7,0.00,Rain,Light Freezing Rain,50,2013-12-22 06:21:00
12:43 AM,30.2,30.2,100,29.64,4.0,NNE,11.5,20.7,0.00,Rain,Light Freezing Rain,30,2013-12-22 06:43:00
12:52 AM,30.9,30.0,96,29.71,3.0,NNE,10.4,18.4,0.00,Rain,Light Freezing Rain,30,2013-12-22 06:52:00
1:09 AM,30.2,30.2,100,29.66,2.5,NNE,9.2,-,0.00,Rain,Light Freezing Rain,20,2013-12-22 07:09:00
1:52 AM,30.9,30.0,96,29.70,1.8,NNE,12.7,21.9,0.00,Rain,Light Freezing Rain,20,2013-12-22 07:52:00
2:05 AM,30.2,30.2,100,29.64,2.5,NNE,16.1,26.5,0.00,Rain,Light Freezing Rain,20,2013-12-22 08:05:00
2:36 AM,30.2,30.2,100,29.63,2.5,North,13.8,24.2,0.00,Snow,Light Snow,10,2013-12-22 08:36:00
2:52 AM,30.9,30.0,96,29.67,2.0,NNE,17.3,23.0,0.00,Snow,Light Snow,20,2013-12-22 08:52:00
3:29 AM,30.2,30.2,100,29.62,1.8,NNE,15.0,26.5,0.00,Snow,Light Snow,30,2013-12-22 09:29:00
3:38 AM,30.2,28.4,93,29.62,2.5,NNE,15.0,23.0,0.00,Snow,Light Snow,20,2013-12-22 09:38:00
3:52 AM,30.0,28.9,96,29.65,2.0,NNE,12.7,24.2,0.00,Snow,Light Snow,20,2013-12-22 09:52:00
4:49 AM,30.2,28.4,93,29.61,3.0,NNE,12.7,19.6,0.00,,Overcast,30,2013-12-22 10:49:00
4:52 AM,30.0,28.9,96,29.64,3.0,NNE,10.4,18.4,0.00,,Overcast,30,2013-12-22 10:52:00
5:00 AM,30.2,30.2,100,29.61,3.0,NNE,10.4,-,0.00,Rain,Light Freezing Rain,30,2013-12-22 11:00:00
5:52 AM,30.9,30.0,96,29.65,4.0,NNE,10.4,21.9,0.00,Rain,Light Freezing Rain,20,2013-12-22 11:52:00
6:04 AM,30.2,30.2,100,29.60,3.0,NNE,12.7,21.9,0.00,Snow,Light Snow,30,2013-12-22 12:04:00
6:24 AM,30.2,30.2,100,29.63,2.5,NNE,9.2,18.4,0.00,Snow,Light Snow,30,2013-12-22 12:24:00
6:38 AM,30.2,30.2,100,29.67,1.2,North,5.8,-,0.00,Snow,Light Snow,360,2013-12-22 12:38:00
6:52 AM,30.9,30.0,96,29.73,0.8,NNE,3.5,-,0.00,Snow,Light Snow,20,2013-12-22 12:52:00
7:14 AM,30.2,30.2,100,29.69,0.5,NNW,4.6,-,0.00,Fog-Snow,Snow,330,2013-12-22 13:14:00
7:37 AM,30.2,30.2,100,29.68,0.2,North,6.9,-,0.00,Fog-Snow,Heavy Snow,350,2013-12-22 13:37:00
7:52 AM,30.0,30.0,100,29.74,0.2,Variable,3.5,-,0.00,Fog-Snow,Snow,0,2013-12-22 13:52:00
8:08 AM,30.2,30.2,100,29.68,0.5,NNW,4.6,-,0.00,Fog-Snow,Light Snow,340,2013-12-22 14:08:00
8:21 AM,30.2,30.2,100,29.69,0.2,North,5.8,-,0.00,Fog-Snow,Snow,360,2013-12-22 14:21:00
8:28 AM,30.2,30.2,100,29.69,0.5,NNW,4.6,-,0.00,Fog-Snow,Snow,340,2013-12-22 14:28:00
8:48 AM,30.2,30.2,100,29.72,1.2,NNW,5.8,-,0.00,Snow,Light Snow,330,2013-12-22 14:48:00
8:52 AM,30.9,30.0,96,29.76,1.0,NNW,3.5,-,0.00,Snow,Light Snow,340,2013-12-22 14:52:00
9:00 AM,30.2,30.2,100,29.73,0.5,NNW,6.9,-,0.00,Fog-Snow,Snow,340,2013-12-22 15:00:00
9:21 AM,30.2,30.2,100,29.73,1.0,NNW,5.8,-,0.00,Snow,Light Snow,340,2013-12-22 15:21:00
9:41 AM,30.2,30.2,100,29.74,3.0,Variable,3.5,-,0.00,,Overcast,0,2013-12-22 15:41:00
9:52 AM,30.9,30.0,96,29.78,3.0,NNW,8.1,-,0.00,,Overcast,330,2013-12-22 15:52:00
10:52 AM,30.9,28.9,92,29.80,10.0,NW,8.1,-,N/A,,Overcast,320,2013-12-22 16:52:00
11:10 AM,30.2,28.4,93,29.77,9.0,NW,5.8,-,N/A,,Mostly Cloudy,310,2013-12-22 17:10:00
11:16 AM,30.2,26.6,86,29.77,6.0,WNW,8.1,-,0.00,Snow,Light Snow,290,2013-12-22 17:16:00
11:22 AM,28.4,26.6,93,29.77,1.8,WNW,6.9,-,0.00,Snow,Light Snow,290,2013-12-22 17:22:00
11:39 AM,28.4,26.6,93,29.76,0.8,WNW,10.4,-,0.00,Snow,Light Snow,290,2013-12-22 17:39:00
11:52 AM,28.9,26.1,89,29.80,1.0,NW,8.1,-,0.00,Snow,Light Snow,310,2013-12-22 17:52:00
12:00 PM,28.4,26.6,93,29.77,1.8,NW,10.4,18.4,0.00,Snow,Light Snow,310,2013-12-22 18:00:00
12:03 PM,28.4,26.6,93,29.77,3.0,NW,10.4,18.4,0.00,,Overcast,310,2013-12-22 18:03:00
12:52 PM,28.9,26.1,89,29.82,10.0,WNW,9.2,-,0.00,,Overcast,300,2013-12-22 18:52:00
1:52 PM,28.9,25.0,85,29.87,10.0,WNW,8.1,-,N/A,,Overcast,290,2013-12-22 19:52:00
2:52 PM,28.0,24.1,85,29.91,10.0,WNW,8.1,-,N/A,,Overcast,300,2013-12-22 20:52:00
3:12 PM,26.6,23.0,86,29.88,10.0,WNW,9.2,16.1,N/A,,Overcast,300,2013-12-22 21:12:00
3:37 PM,26.6,23.0,86,29.89,10.0,WNW,8.1,-,N/A,,Overcast,300,2013-12-22 21:37:00
3:52 PM,27.0,23.0,85,29.95,10.0,WNW,9.2,-,N/A,,Overcast,300,2013-12-22 21:52:00
4:52 PM,25.0,21.0,85,29.98,10.0,WNW,8.1,-,N/A,,Overcast,300,2013-12-22 22:52:00
5:52 PM,24.1,21.0,88,30.00,10.0,WNW,6.9,-,N/A,,Overcast,300,2013-12-22 23:52:00
6:52 PM,24.1,19.9,84,30.03,10.0,WNW,6.9,-,N/A,,Overcast,300,2013-12-23 00:52:00
7:20 PM,24.8,19.4,80,29.99,10.0,WNW,6.9,-,N/A,,Overcast,300,2013-12-23 01:20:00
7:34 PM,24.8,19.4,80,30.00,9.0,WNW,5.8,-,N/A,,Overcast,300,2013-12-23 01:34:00
7:52 PM,23.0,19.9,88,30.06,10.0,WNW,6.9,-,N/A,,Overcast,300,2013-12-23 01:52:00
8:12 PM,23.0,19.4,86,30.01,8.0,WNW,6.9,-,N/A,,Overcast,290,2013-12-23 02:12:00
8:52 PM,23.0,19.9,88,30.07,5.0,WNW,5.8,-,0.00,Snow,Light Snow,290,2013-12-23 02:52:00
9:33 PM,21.2,19.4,93,30.04,5.0,WNW,5.8,-,0.00,Snow,Light Snow,290,2013-12-23 03:33:00
9:52 PM,21.9,19.0,89,30.09,3.0,West,4.6,-,0.00,Snow,Light Snow,280,2013-12-23 03:52:00
10:24 PM,21.2,19.4,93,30.05,6.0,WNW,9.2,-,0.00,Snow,Light Snow,290,2013-12-23 04:24:00
10:52 PM,21.9,19.0,89,30.12,5.0,West,6.9,-,0.00,Snow,Light Snow,280,2013-12-23 04:52:00
11:52 PM,21.9,19.0,89,30.13,8.0,West,4.6,-,0.00,,Overcast,280,2013-12-23 05:52:00